Kezdőlap
METAR-TAF:

METAR-TAF

Repülőterek :

Stanton, Minnesota, Amerikai Egyesült Államok

földrajzi szélesség: 44-28-32N, földrajzi hosszúság: 093-00-59W, magasság: 280 m

Jelenlegi meteorológiai megfigyelések

A jelentés 27 perccel ezelõtt készült, 11:55 UTC
Szélcsend
Hőmérséklet 18°C
Páratartalom 94%
Légköri nyomás 1011 hPa
Látótávolság: 16.1 km
Derült ég

METAR: KSYN 161155Z AUTO 00000KT 10SM CLR 18/17 A2986 RMK AO2 6//// 7//// T01770165 10212 20167 PNO

Idő: 07:22 (12:22 UTC)


TAF: hiányzik

Meteorológiai megfigyelések és előrejelzések több, mint 4000 repülőtéren (METAR és TAF jelentéseket).

A térképen piros és sárga pontok jelzik az elérhető meteorológiai állomásokat.

Mozgassa az egeret a pont fölött, hogy megjelenjen az állomás neve.

Azután kattintson az időjárási megfigyelések és előrejelzések megtekintéséhez.

A térkép megváltoztatása: kattintson a fekete keresztel jelölt zöld gombra ráközelítéshez, a vonallal jelölt zöld gombra távolításhoz, vagy a zöld nyilakra a szomszédos térképek eléréséhez.


METAR-TAF: